STARLINK-34637, 64776

Orbit data source: Space-Track

STARLINK-34637, 64776 is a payload satellite owned by SpaceX/Seattle (US) in LEO that was launched on Tue, 08 Jul 2025 UTC via an FALCON 9 launch vehicle from the Air Force Eastern Test Range (AFETR). Payload-class satellites include a variety of spacecraft equipped with specific instruments for various scientific and technological missions. These include communications satellites like Starlink; space stations such as the ISS; scientific satellites like the Hubble; Earth observation satellites from companies like Planet Labs, Umbra, and HawkEye 360; GPS; miniature CubeSats for education and research; and military/defense satellites.

Loading next visibility...
Identifier
64776, 2025-147X
Orbit
LEO
Country
Flag of USUS
Related business
Manufacturer
SpaceX/Seattle
Mission
Operational spacecraft
Bus & Motor
STARLINK V2MO, Unknown motor
Mass
575 kg wet, ~530 kg dry
Launch date (UTC)
2025-07-08 (2 months ago)
Launch vehicle
FALCON 9
Launch site
Air Force Eastern Test Range (AFETR)
Object type
Payload
Rocket body
Debris
Shape & HBR
Unknown
Radar Cross Section
Large (>1 m²)

Expand to show TLE details & history
Last TLE update: 5 hours ago

TLE from 5 hours ago
0 STARLINK-34637
1 64776U 25147X   25243.61150090  .00083123  00000-0  20650-2 0  9999
2 64776  53.1603  46.8026 0000937  49.8241 310.2846 15.39627438  9565
Epoch: 2025-08-31T14:40Z
TLE epoch observation values (Epoch: 2025-08-31T14:40:33.677Z)
Latitude
-0.00002°
Longitude
-153.36669°
Altitude
447.7 km
Speed
7.645 km/s
True Right ascension
03h 07m 12s
True Declination
0° 00' 00"
Sunlit
Object was in full shadow at epoch
Visualization orbit readout
Latitude
Unknown
Longitude
Unknown
Altitude
Unknown
Speed
Unknown
Apparent Right ascension
Unknown
Apparent Declination
Unknown
Sunlit
N/A
Visualization observer readout
Local Sidereal Time
11:04:40
Azimuth
Unknown
Elevation
Unknown
Doppler factor
Unknown
Orbital elements
Apogee altitude
448.107 km
Perigee altitude
446.828 km
Semi-major axis
6,825.605 km
Eccentricity
0.00009
Inclination
53.1603°
RAAN
46.8026°
Arg. of periapsis
49.8241°
True anomaly
310.27641°
Mean anomaly
310.2846°
Eccentric anomaly
310.2805°
Mean motion
3.84885 °/min
Orbital period
93.53 mins
BSTAR
0.002065
Loading maneuver chart data...
Computing Atmospheric mass density...
Loading historical data...
Loading historical data...
Loading historical data...
Loading historical data...
Loading historical data...
Loading historical data...
Loading historical data...

Documentation

Showing up to 5 results
|